SL-8 DEB, 27748

Orbit data source: Space-Track

SL-8 DEB, 27748 is space debris in LEO originally from a launch on Tue, 12 Feb 1991 UTC launched from the Plesetsk Missile And Space Complex (PKMTR). Debris objects in space refer to the collection of defunct objects orbiting the Earth. Examples of debris include non-operational satellites, rocket bodies, and fragments generated from explosions, collisions, or faulty payload assembly.

Loading next visibility...
Identifier
27748, 1991-009DD
Orbit
LEO
Country
Flag of CISCIS
Related business
Manufacturer
Unknown
Mission
Spacecraft
Bus & Motor
Unknown
Mass
Unknown
Launch date (UTC)
1991-02-12 (35 years ago)
Launch vehicle
Unknown
Launch site
Plesetsk Missile And Space Complex (PKMTR)
Object type
Payload
Rocket body
Debris
Shape & HBR
Unknown shape, 0.1 m
Radar Cross Section
Medium (>0.1 m² and <1 m²)

Expand to show TLE details & history
Last TLE update: 3 days ago

TLE from 3 days ago
0 SL-8 DEB
1 27748U 91009DD  26171.12157492  .00000066  00000-0  75022-3 0  9996
2 27748  74.0499 223.7421 0175747 294.5557  90.2191 12.19637076293998
Epoch: 2026-06-20T02:55Z
TLE epoch observation values (Epoch: 2026-06-20T02:55:04.073Z)
Latitude
25.71435°
Longitude
-80.49304°
Altitude
1,599.72 km
Speed
7.071 km/s
True Right ascension
15h 26m 27s
True Declination
25° 35' 40"
Sunlit
Object was in daylight at epoch
Visualization orbit readout
Latitude
Unknown
Longitude
Unknown
Altitude
Unknown
Speed
Unknown
Apparent Right ascension
Unknown
Apparent Declination
Unknown
Sunlit
N/A
Visualization observer readout
Local Sidereal Time
02:30:11
Azimuth
Unknown
Elevation
Unknown
Doppler factor
Unknown
Orbital elements
Apogee altitude
1,732.063 km
Perigee altitude
1,451.918 km
Semi-major axis
7,970.127 km
Eccentricity
0.01757
Inclination
74.0499°
RAAN
223.7421°
Arg. of periapsis
294.5557°
True anomaly
92.23241°
Mean anomaly
90.2191°
Eccentric anomaly
91.22583°
Mean motion
3.05032 °/min
Orbital period
118.02 mins
BSTAR
0.00075022
Loading maneuver chart data...
Computing Atmospheric mass density...
Loading historical data...
Loading historical data...
Loading historical data...
Loading historical data...
Loading historical data...
Loading historical data...
Loading historical data...

Documentation

Showing up to 5 results
|